Powrót do katalogu

KUIPER-00436

AktywnyŁącznośćLEO
NORAD 68939·PAYLOAD·🇺🇸 United States

Wystrzelony Apr 30, 2026 z Guiana Space Centre

Loading…

Następne Przeloty (najbliższe 24 godziny)

TLE

ŚwieżeSource: CelesTrak SupGP

Epoka: Sep 14, 2026, 19:59 UTC

1 68939C 26098W   26257.83325232  .00008264  00000+0  10819-2 0  2577
2 68939  51.9002  21.7459 0000591 105.9437  74.6039 14.79919244    16

Śledź KUIPER-00436 w czasie rzeczywistym z AllMySat

Download on the App Store